Flag for Belgium Weather past 2 weeks in Mons, Belgium

45 °F

Drizzle. Overcast.

Feels Like: 37 °F
Forecast: 46 / 53 °F
Wind: 17 mph from Southwest

Location: Chievres

Current Time: Nov 28, 2015 at 6:04:44 PM

Latest Report: Nov 28, 2015 at 5:25 PM

Visibility: N/A

Pressure: 29.98 "Hg

Humidity: 76%

Dew point: 37 °F

Location of MonsLocation

Historic Weather in Mons — Graph


Mons temperature yesterday

Maximum temperature yesterday: 43 °F (at 1:25 PM)
Minimum temperature yesterday: 32 °F (at 3:55 AM)
Average temperature yesterday: 38 °F

Past Weeks' High & Low Weather Summary

High61 °F (Nov 17, 7:55 PM)100% (Nov 16, 12:55 PM)30.36 "Hg (Nov 16, 12:55 PM)
Low27 °F (Nov 23, 6:25 AM)66% (Nov 25, 2:55 PM)29.42 "Hg (Nov 21, 7:55 AM)
Average45 °F89%29.95 "Hg
* Reported Nov 13 4:25 PM — Nov 28 4:55 PM, Mons, Weather by CustomWeather, © 2015

Note: Actual official high and low records may vary slightly from our data, if they occured in-between our weather recording intervals... More about our weather records


Mons weather history for previous 24 hours

Time TempWeatherWind HumidityBarometerVisibility
4:55 PM
Sat, Nov 28
45 °FPassing clouds.16 mph76%29.98 "HgN/A
4:25 PM45 °FBroken clouds.15 mph76%29.98 "HgN/A
3:55 PM45 °FPartly sunny.15 mph76%30.01 "HgN/A
3:25 PM45 °FPassing clouds.16 mph76%30.01 "HgN/A
2:55 PM45 °FQuite cool.14 mph76%30.01 "HgN/A
2:25 PM46 °FCool.13 mph66%30.01 "HgN/A
1:55 PM46 °FCool.14 mph66%30.01 "HgN/A
1:25 PM45 °FQuite cool.14 mph71%30.04 "HgN/A
12:55 PM45 °FQuite cool.13 mph71%30.04 "HgN/A
12:25 PM43 °FQuite cool.13 mph76%30.04 "HgN/A
11:55 AM43 °FQuite cool.12 mph76%30.04 "HgN/A
11:25 AM43 °FQuite cool.12 mph76%30.04 "HgN/A
10:55 AM41 °FQuite cool.12 mph81%30.04 "HgN/A
10:25 AM39 °FChilly.10 mph81%30.01 "HgN/A
9:55 AM39 °FChilly.9 mph81%30.01 "HgN/A
9:25 AM37 °FChilly.8 mph87%30.01 "HgN/A
8:55 AM37 °FPassing clouds.8 mph87%29.98 "HgN/A
8:25 AM37 °FPassing clouds.7 mph87%29.98 "HgN/A
7:55 AM39 °FChilly.8 mph87%29.95 "HgN/A
7:25 AM39 °FPassing clouds.8 mph87%29.95 "HgN/A
6:55 AM39 °FChilly.10 mph87%29.92 "HgN/A
6:25 AM39 °FChilly.12 mph87%29.92 "HgN/A
5:55 AM39 °FPassing clouds.12 mph87%29.89 "HgN/A
5:25 AM41 °FPassing clouds.13 mph81%29.89 "HgN/A
4:55 AM41 °FPassing clouds.17 mph81%29.86 "HgN/A
4:25 AM43 °FOvercast.20 mph81%29.83 "HgN/A
3:55 AM43 °FOvercast.18 mph87%29.80 "HgN/A
3:25 AM45 °FPassing clouds.18 mph87%29.80 "HgN/A
2:55 AM45 °FDrizzle. Low clouds.16 mph93%29.77 "HgN/A
2:25 AM45 °FOvercast.13 mph93%29.77 "HgN/A
1:55 AM43 °FLow clouds.18 mph93%29.77 "Hg5 mi
1:25 AM41 °FLight rain. Low clouds.23 mph100%29.74 "Hg5 mi
12:55 AM41 °FLight rain. Low clouds.18 mph93%29.74 "Hg4 mi
12:25 AM41 °FLow clouds.18 mph93%29.74 "HgN/A
11:55 PM
Fri, Nov 27
39 °FLow clouds.17 mph93%29.74 "HgN/A
11:25 PM39 °FLow clouds.17 mph93%29.77 "HgN/A
10:55 PM39 °FDrizzle. Low clouds.17 mph93%29.77 "Hg4 mi
10:25 PM39 °FLow clouds.18 mph93%29.80 "HgN/A
9:55 PM39 °FLow clouds.17 mph93%29.80 "Hg4 mi
9:25 PM39 °FDrizzle. Low clouds.15 mph93%29.83 "Hg2 mi
8:55 PM37 °FDrizzle. Low clouds.15 mph100%29.83 "Hg2 mi
8:25 PM37 °FMostly cloudy.15 mph100%29.86 "Hg4 mi
8:03 PM37 °FMostly cloudy.16 mph93%29.86 "Hg6 mi
7:55 PM39 °FLow clouds.17 mph87%29.86 "Hg6 mi
7:25 PM39 °FOvercast.13 mph93%29.86 "Hg6 mi
6:55 PM39 °FMostly cloudy.13 mph93%29.86 "Hg6 mi
6:25 PM39 °FPassing clouds.14 mph93%29.89 "Hg6 mi
Weather by CustomWeather, © 2015

See weather overviewHow to use our weather pages